Time,TemperatureF,DewpointF,PressureIn,WindDirection,WindDirectionDegrees,WindSpeedMPH,WindSpeedGustMPH,Humidity,HourlyPrecipIn,Conditions,Clouds,dailyrainin,SoftwareType,DateUTC
2013-03-25 00:00:00,30.4,18.6,18.63,ENE,72,7.6,7.6,61,0.00,,---,0.00,VWS V13.01,2013-03-25 04:00:00,
2013-03-25 00:02:00,30.4,18.6,18.63,East,95,6.3,8.7,61,0.00,,---,0.00,VWS V13.01,2013-03-25 04:02:00,
2013-03-25 00:03:00,30.4,18.6,18.63,SSE,167,5.4,8.7,61,0.00,,---,0.00,VWS V13.01,2013-03-25 04:03:00,
2013-03-25 00:08:00,30.4,18.6,18.63,ENE,73,4.0,8.7,61,0.00,,---,0.00,VWS V13.01,2013-03-25 04:08:00,
2013-03-25 00:13:00,30.6,18.7,18.63,ENE,78,10.1,10.1,61,0.00,,---,0.00,VWS V13.01,2013-03-25 04:13:00,
2013-03-25 00:18:00,30.6,18.7,18.63,ENE,78,5.8,10.1,61,0.00,,---,0.00,VWS V13.01,2013-03-25 04:18:00,
2013-03-25 00:24:00,30.6,18.7,18.63,ENE,73,8.1,8.7,61,0.00,,---,0.00,VWS V13.01,2013-03-25 04:24:00,
2013-03-25 00:29:00,30.6,18.7,18.63,East,95,4.0,8.7,61,0.00,,---,0.00,VWS V13.01,2013-03-25 04:29:00,
2013-03-25 00:34:00,30.6,18.7,18.63,ENE,73,5.8,8.3,61,0.00,,---,0.00,VWS V13.01,2013-03-25 04:34:00,
2013-03-25 00:39:00,30.6,18.7,18.63,ENE,61,5.8,8.3,61,0.00,,---,0.00,VWS V13.01,2013-03-25 04:39:00,
2013-03-25 00:44:00,30.6,18.7,18.63,NE,56,3.6,8.3,61,0.00,,---,0.00,VWS V13.01,2013-03-25 04:44:00,
2013-03-25 00:50:00,30.6,18.7,18.63,East,83,9.2,9.2,61,0.00,,---,0.00,VWS V13.01,2013-03-25 04:50:00,
2013-03-25 00:55:00,30.6,18.7,18.63,ENE,76,8.3,9.2,61,0.00,,---,0.00,VWS V13.01,2013-03-25 04:55:00,
2013-03-25 01:00:00,30.6,18.7,18.63,SSE,157,4.9,5.4,61,0.00,,---,0.00,VWS V13.01,2013-03-25 05:00:00,
2013-03-25 01:05:00,30.4,18.6,18.63,NE,49,4.0,8.3,61,0.00,,---,0.00,VWS V13.01,2013-03-25 05:05:00,
2013-03-25 01:11:00,30.4,18.9,18.63,NE,56,4.0,7.6,62,0.00,,---,0.00,VWS V13.01,2013-03-25 05:11:00,
2013-03-25 01:16:00,30.4,18.6,18.63,ENE,61,5.4,7.6,61,0.00,,---,0.00,VWS V13.01,2013-03-25 05:16:00,
2013-03-25 01:21:00,30.4,18.9,18.63,NE,53,4.0,4.9,62,0.00,,---,0.00,VWS V13.01,2013-03-25 05:21:00,
2013-03-25 01:26:00,30.4,18.9,18.63,ENE,76,4.5,5.8,62,0.00,,---,0.00,VWS V13.01,2013-03-25 05:26:00,
2013-03-25 01:31:00,30.2,18.8,18.63,ESE,122,3.6,6.3,62,0.00,,---,0.00,VWS V13.01,2013-03-25 05:31:00,
2013-03-25 01:36:00,30.2,19.1,18.63,ESE,113,3.1,6.3,63,0.00,,---,0.00,VWS V13.01,2013-03-25 05:36:00,
2013-03-25 01:42:00,30.2,19.1,18.63,ESE,102,2.2,4.9,63,0.00,,---,0.00,VWS V13.01,2013-03-25 05:42:00,
2013-03-25 01:47:00,30.0,19.0,18.63,ENE,78,3.6,7.6,63,0.00,,---,0.00,VWS V13.01,2013-03-25 05:47:00,
2013-03-25 01:52:00,30.0,19.3,18.63,ENE,77,3.1,5.8,64,0.00,,---,0.00,VWS V13.01,2013-03-25 05:52:00,
2013-03-25 01:57:00,30.0,19.3,18.63,ENE,61,4.0,6.3,64,0.00,,---,0.00,VWS V13.01,2013-03-25 05:57:00,
2013-03-25 02:02:00,29.8,19.2,18.63,East,86,3.6,4.0,64,0.00,,---,0.00,VWS V13.01,2013-03-25 06:02:00,
2013-03-25 02:07:00,29.8,19.2,18.63,NE,56,3.1,4.0,64,0.00,,---,0.00,VWS V13.01,2013-03-25 06:07:00,
2013-03-25 02:12:00,29.8,19.2,18.63,East,90,0.0,0.0,64,0.00,,---,0.00,VWS V13.01,2013-03-25 06:12:00,
2013-03-25 02:17:00,29.7,19.0,18.63,East,89,0.0,4.9,64,0.00,,---,0.00,VWS V13.01,2013-03-25 06:17:00,
2013-03-25 02:23:00,29.7,19.0,18.63,East,88,0.0,0.0,64,0.00,,---,0.00,VWS V13.01,2013-03-25 06:23:00,
2013-03-25 02:28:00,29.5,18.8,18.63,East,93,3.1,3.6,64,0.00,,---,0.00,VWS V13.01,2013-03-25 06:28:00,
2013-03-25 02:33:00,29.5,19.2,18.63,ENE,65,2.2,3.6,65,0.00,,---,0.00,VWS V13.01,2013-03-25 06:33:00,
2013-03-25 02:38:00,29.5,19.2,18.63,ENE,70,4.5,4.9,65,0.00,,---,0.00,VWS V13.01,2013-03-25 06:38:00,
2013-03-25 02:43:00,29.5,19.2,18.63,East,83,4.0,5.4,65,0.00,,---,0.00,VWS V13.01,2013-03-25 06:43:00,
2013-03-25 02:48:00,29.5,19.2,18.63,NE,56,2.7,5.4,65,0.00,,---,0.00,VWS V13.01,2013-03-25 06:48:00,
2013-03-25 02:53:00,29.5,19.2,18.63,ENE,64,2.7,5.8,65,0.00,,---,0.00,VWS V13.01,2013-03-25 06:53:00,
2013-03-25 02:59:00,29.5,19.2,18.63,ENE,77,3.1,5.8,65,0.00,,---,0.00,VWS V13.01,2013-03-25 06:59:00,
2013-03-25 03:04:00,29.5,19.2,18.63,ENE,76,3.1,4.0,65,0.00,,---,0.00,VWS V13.01,2013-03-25 07:04:00,
2013-03-25 03:09:00,29.5,19.2,18.63,NE,50,4.0,4.9,65,0.00,,---,0.00,VWS V13.01,2013-03-25 07:09:00,
2013-03-25 03:14:00,29.5,19.2,18.63,NE,55,2.7,5.4,65,0.00,,---,0.00,VWS V13.01,2013-03-25 07:14:00,
2013-03-25 03:19:00,29.7,19.4,18.63,ENE,67,2.2,5.4,65,0.00,,---,0.00,VWS V13.01,2013-03-25 07:19:00,
2013-03-25 03:24:00,29.7,19.7,18.63,ENE,58,3.6,4.9,66,0.00,,---,0.00,VWS V13.01,2013-03-25 07:24:00,
2013-03-25 03:29:00,29.7,19.7,18.63,ENE,73,0.0,6.3,66,0.00,,---,0.00,VWS V13.01,2013-03-25 07:29:00,
2013-03-25 03:34:00,29.7,19.7,18.63,NE,50,2.7,4.0,66,0.00,,---,0.00,VWS V13.01,2013-03-25 07:34:00,
2013-03-25 03:39:00,29.7,19.7,18.63,ENE,76,2.7,6.3,66,0.00,,---,0.00,VWS V13.01,2013-03-25 07:39:00,
2013-03-25 03:45:00,29.7,20.1,18.63,NE,44,4.0,5.8,67,0.00,,---,0.00,VWS V13.01,2013-03-25 07:45:00,
2013-03-25 03:50:00,29.7,20.1,18.63,NE,54,5.4,5.8,67,0.00,,---,0.00,VWS V13.01,2013-03-25 07:50:00,
2013-03-25 03:55:00,29.7,20.1,18.63,NE,48,3.6,6.3,67,0.00,,---,0.00,VWS V13.01,2013-03-25 07:55:00,
2013-03-25 04:00:00,29.7,20.4,18.63,ENE,69,2.7,6.3,68,0.00,,---,0.00,VWS V13.01,2013-03-25 08:00:00,
2013-03-25 04:05:00,29.8,20.6,18.63,NE,51,0.0,3.6,68,0.00,,---,0.00,VWS V13.01,2013-03-25 08:05:00,
2013-03-25 04:10:00,29.8,20.6,18.63,ENE,66,2.7,2.7,68,0.00,,---,0.00,VWS V13.01,2013-03-25 08:10:00,
2013-03-25 04:15:00,29.8,20.6,18.63,NE,52,3.6,3.6,68,0.00,,---,0.00,VWS V13.01,2013-03-25 08:15:00,
2013-03-25 04:21:00,29.8,20.6,18.63,NE,55,3.6,4.0,68,0.00,,---,0.00,VWS V13.01,2013-03-25 08:21:00,
2013-03-25 04:26:00,29.8,20.6,18.63,NE,54,3.1,4.0,68,0.00,,---,0.00,VWS V13.01,2013-03-25 08:26:00,
2013-03-25 04:31:00,29.8,20.6,18.63,NE,54,0.0,2.7,68,0.00,,---,0.00,VWS V13.01,2013-03-25 08:31:00,
2013-03-25 04:36:00,29.7,20.4,18.63,ENE,64,0.0,2.7,68,0.00,,---,0.00,VWS V13.01,2013-03-25 08:36:00,
2013-03-25 04:42:00,29.7,20.4,18.63,ENE,60,2.7,3.6,68,0.00,,---,0.00,VWS V13.01,2013-03-25 08:42:00,
2013-03-25 04:47:00,29.7,20.8,18.63,East,82,0.0,5.4,69,0.00,,---,0.00,VWS V13.01,2013-03-25 08:47:00,
2013-03-25 04:52:00,29.7,20.8,18.63,ENE,62,0.0,0.0,69,0.00,,---,0.00,VWS V13.01,2013-03-25 08:52:00,
2013-03-25 04:57:00,29.7,20.8,18.63,ENE,67,0.0,0.0,69,0.00,,---,0.00,VWS V13.01,2013-03-25 08:57:00,
2013-03-25 05:02:00,29.7,20.8,18.63,NE,49,0.0,0.0,69,0.00,,---,0.00,VWS V13.01,2013-03-25 09:02:00,
2013-03-25 05:07:00,29.7,20.8,18.63,East,79,0.0,0.0,69,0.00,,---,0.00,VWS V13.01,2013-03-25 09:07:00,
2013-03-25 05:13:00,29.7,20.8,18.63,ENE,72,0.0,0.0,69,0.00,,---,0.00,VWS V13.01,2013-03-25 09:13:00,
2013-03-25 05:18:00,29.7,20.8,18.63,ENE,68,0.0,0.0,69,0.00,,---,0.00,VWS V13.01,2013-03-25 09:18:00,
2013-03-25 05:23:00,29.7,20.8,18.63,ENE,57,0.0,0.0,69,0.00,,---,0.00,VWS V13.01,2013-03-25 09:23:00,
2013-03-25 05:28:00,29.7,20.8,18.63,ENE,63,3.1,4.5,69,0.00,,---,0.00,VWS V13.01,2013-03-25 09:28:00,
2013-03-25 05:33:00,29.7,20.8,18.63,ENE,64,2.7,5.8,69,0.00,,---,0.00,VWS V13.01,2013-03-25 09:33:00,
2013-03-25 05:38:00,29.8,20.9,18.63,ENE,59,3.1,5.8,69,0.00,,---,0.00,VWS V13.01,2013-03-25 09:38:00,
2013-03-25 05:44:00,29.8,20.9,18.63,ENE,70,2.7,3.6,69,0.00,,---,0.00,VWS V13.01,2013-03-25 09:44:00,
2013-03-25 05:49:00,29.8,20.9,18.63,NE,54,0.0,3.6,69,0.00,,---,0.00,VWS V13.01,2013-03-25 09:49:00,
2013-03-25 05:54:00,29.8,20.9,18.63,ENE,62,0.0,0.0,69,0.00,,---,0.00,VWS V13.01,2013-03-25 09:54:00,
2013-03-25 05:59:00,29.8,20.6,18.63,ENE,67,0.0,0.0,68,0.00,,---,0.00,VWS V13.01,2013-03-25 09:59:00,
2013-03-25 06:05:00,29.8,20.6,18.63,ENE,63,3.6,4.9,68,0.00,,---,0.00,VWS V13.01,2013-03-25 10:05:00,
2013-03-25 06:10:00,29.8,20.6,18.63,NE,54,5.8,5.8,68,0.00,,---,0.00,VWS V13.01,2013-03-25 10:10:00,
2013-03-25 06:15:00,29.8,20.6,18.63,ENE,70,4.9,5.8,68,0.00,,---,0.00,VWS V13.01,2013-03-25 10:15:00,
2013-03-25 06:20:00,29.8,20.2,18.63,ENE,75,3.1,5.8,67,0.00,,---,0.00,VWS V13.01,2013-03-25 10:20:00,
2013-03-25 06:25:00,29.8,20.2,18.63,ENE,59,3.6,4.9,67,0.00,,---,0.00,VWS V13.01,2013-03-25 10:25:00,
2013-03-25 06:30:00,29.7,20.1,18.63,ENE,70,3.1,5.4,67,0.00,,---,0.00,VWS V13.01,2013-03-25 10:30:00,
2013-03-25 06:35:00,29.7,20.1,18.63,ENE,66,2.7,5.4,67,0.00,,---,0.00,VWS V13.01,2013-03-25 10:35:00,
2013-03-25 06:40:00,29.7,20.1,18.63,ENE,66,3.1,4.0,67,0.00,,---,0.00,VWS V13.01,2013-03-25 10:40:00,
2013-03-25 06:46:00,29.7,20.1,18.63,East,80,3.1,5.8,67,0.00,,---,0.00,VWS V13.01,2013-03-25 10:46:00,
2013-03-25 06:51:00,29.7,20.1,18.63,ENE,60,4.9,5.8,67,0.00,,---,0.00,VWS V13.01,2013-03-25 10:51:00,
2013-03-25 06:56:00,29.7,19.7,18.63,ESE,115,6.3,7.6,66,0.00,,---,0.00,VWS V13.01,2013-03-25 10:56:00,
2013-03-25 07:01:00,29.8,19.9,18.63,ENE,61,3.1,4.0,66,0.00,,---,0.00,VWS V13.01,2013-03-25 11:01:00,
2013-03-25 07:06:00,29.8,19.9,18.63,ENE,70,3.6,6.3,66,0.00,,---,0.00,VWS V13.01,2013-03-25 11:06:00,
2013-03-25 07:11:00,29.8,19.9,18.63,ENE,74,2.7,5.4,66,0.00,,---,0.00,VWS V13.01,2013-03-25 11:11:00,
2013-03-25 07:17:00,29.8,19.9,18.63,East,94,0.0,6.3,66,0.00,,---,0.00,VWS V13.01,2013-03-25 11:17:00,
2013-03-25 07:22:00,29.8,19.5,18.63,ENE,59,4.0,6.3,65,0.00,,---,0.00,VWS V13.01,2013-03-25 11:22:00,
2013-03-25 07:27:00,29.8,19.5,18.63,NE,49,3.6,6.3,65,0.00,,---,0.00,VWS V13.01,2013-03-25 11:27:00,
2013-03-25 07:32:00,29.8,19.5,18.63,ENE,74,4.0,5.4,65,0.00,,---,0.00,VWS V13.01,2013-03-25 11:32:00,
2013-03-25 07:37:00,30.0,19.7,18.63,ENE,60,0.0,6.3,65,0.00,,---,0.00,VWS V13.01,2013-03-25 11:37:00,
2013-03-25 07:42:00,30.2,19.5,18.63,ENE,61,4.0,7.6,64,0.00,,---,0.00,VWS V13.01,2013-03-25 11:42:00,
2013-03-25 07:48:00,30.2,19.5,18.63,NE,53,7.6,7.6,64,0.00,,---,0.00,VWS V13.01,2013-03-25 11:48:00,
2013-03-25 07:53:00,30.2,19.5,18.63,NE,54,3.6,5.4,64,0.00,,---,0.00,VWS V13.01,2013-03-25 11:53:00,
2013-03-25 07:58:00,30.4,19.3,18.63,ESE,110,3.6,7.6,63,0.00,,---,0.00,VWS V13.01,2013-03-25 11:58:00,
2013-03-25 08:04:00,30.7,19.3,18.63,NE,56,5.4,5.8,62,0.00,,---,0.00,VWS V13.01,2013-03-25 12:04:00,
2013-03-25 08:09:00,31.1,19.2,18.63,NNE,27,5.8,8.7,61,0.00,,---,0.00,VWS V13.01,2013-03-25 12:09:00,
2013-03-25 08:14:00,31.5,19.6,18.63,East,81,4.9,5.8,61,0.00,,---,0.00,VWS V13.01,2013-03-25 12:14:00,
2013-03-25 08:19:00,31.6,19.4,18.63,NE,48,7.6,8.3,60,0.00,,---,0.00,VWS V13.01,2013-03-25 12:19:00,
2013-03-25 08:24:00,32.0,19.7,18.63,East,84,5.8,6.3,60,0.00,,---,0.00,VWS V13.01,2013-03-25 12:24:00,
2013-03-25 08:30:00,32.5,19.8,18.63,NE,56,4.0,6.3,59,0.00,,---,0.00,VWS V13.01,2013-03-25 12:30:00,
2013-03-25 08:35:00,33.1,19.9,18.63,NE,55,4.9,8.1,58,0.00,,---,0.00,VWS V13.01,2013-03-25 12:35:00,
2013-03-25 08:40:00,33.1,19.9,18.63,NE,49,5.4,10.1,58,0.00,,---,0.00,VWS V13.01,2013-03-25 12:40:00,
2013-03-25 08:45:00,33.3,19.7,18.63,ENE,64,3.6,10.1,57,0.00,,---,0.00,VWS V13.01,2013-03-25 12:45:00,
2013-03-25 08:50:00,33.8,19.8,18.63,NE,46,5.8,10.1,56,0.00,,---,0.00,VWS V13.01,2013-03-25 12:50:00,
2013-03-25 08:56:00,34.2,20.1,18.63,NE,55,7.6,8.1,56,0.00,,---,0.00,VWS V13.01,2013-03-25 12:56:00,
2013-03-25 09:02:00,34.3,19.9,18.63,ENE,65,5.4,8.1,55,0.00,,---,0.00,VWS V13.01,2013-03-25 13:02:00,
2013-03-25 09:07:00,34.2,19.7,18.63,ESE,116,4.9,8.1,55,0.00,,---,0.00,VWS V13.01,2013-03-25 13:07:00,
2013-03-25 09:12:00,34.2,19.3,18.63,East,86,5.4,8.3,54,0.00,,---,0.00,VWS V13.01,2013-03-25 13:12:00,
2013-03-25 09:17:00,34.3,19.4,18.63,ENE,61,2.7,8.3,54,0.00,,---,0.00,VWS V13.01,2013-03-25 13:17:00,
2013-03-25 09:23:00,34.5,19.6,18.63,ESE,110,3.6,5.8,54,0.00,,---,0.00,VWS V13.01,2013-03-25 13:23:00,
2013-03-25 09:28:00,34.7,19.8,18.63,ENE,75,3.6,5.8,54,0.00,,---,0.00,VWS V13.01,2013-03-25 13:28:00,
2013-03-25 09:33:00,34.7,19.8,18.63,NE,42,2.7,5.4,54,0.00,,---,0.00,VWS V13.01,2013-03-25 13:33:00,
2013-03-25 09:38:00,34.9,19.9,18.63,ENE,74,0.0,7.6,54,0.00,,---,0.00,VWS V13.01,2013-03-25 13:38:00,
2013-03-25 09:44:00,35.1,20.1,18.63,ENE,73,0.0,4.9,54,0.00,,---,0.00,VWS V13.01,2013-03-25 13:44:00,
2013-03-25 09:49:00,35.2,20.3,18.63,ESE,110,5.8,6.3,54,0.00,,---,0.00,VWS V13.01,2013-03-25 13:49:00,
2013-03-25 09:54:00,35.4,20.0,18.63,SE,124,4.9,8.7,53,0.00,,---,0.00,VWS V13.01,2013-03-25 13:54:00,
2013-03-25 10:00:00,35.6,19.7,18.63,East,81,4.0,8.7,52,0.00,,---,0.00,VWS V13.01,2013-03-25 14:00:00,
2013-03-25 10:05:00,35.8,19.9,18.63,East,93,3.1,5.4,52,0.00,,---,0.00,VWS V13.01,2013-03-25 14:05:00,
2013-03-25 10:10:00,36.1,20.2,18.63,NE,49,5.4,6.3,52,0.00,,---,0.00,VWS V13.01,2013-03-25 14:10:00,
2013-03-25 10:15:00,36.1,20.2,18.63,NE,51,6.3,8.1,52,0.00,,---,0.00,VWS V13.01,2013-03-25 14:15:00,
2013-03-25 10:20:00,36.5,20.1,18.63,ENE,63,7.2,7.2,51,0.00,,---,0.00,VWS V13.01,2013-03-25 14:20:00,
2013-03-25 10:25:00,37.0,20.6,18.63,East,79,3.6,8.3,51,0.00,,---,0.00,VWS V13.01,2013-03-25 14:25:00,
2013-03-25 10:32:00,37.6,20.6,18.63,ENE,78,4.0,5.8,50,0.00,,---,0.00,VWS V13.01,2013-03-25 14:32:00,
2013-03-25 10:37:00,37.9,20.5,18.63,ENE,63,5.4,8.3,49,0.00,,---,0.00,VWS V13.01,2013-03-25 14:37:00,
2013-03-25 10:42:00,37.9,20.5,18.63,NE,50,6.3,6.7,49,0.00,,---,0.00,VWS V13.01,2013-03-25 14:42:00,
2013-03-25 10:47:00,38.3,21.3,18.63,ENE,68,4.9,8.7,50,0.00,,---,0.00,VWS V13.01,2013-03-25 14:47:00,
2013-03-25 10:52:00,38.3,20.8,18.63,NE,38,7.6,8.3,49,0.00,,---,0.00,VWS V13.01,2013-03-25 14:52:00,
2013-03-25 10:58:00,38.5,21.0,18.63,ENE,66,3.1,8.3,49,0.00,,---,0.00,VWS V13.01,2013-03-25 14:58:00,
2013-03-25 11:03:00,38.5,20.5,18.63,ENE,65,8.1,8.7,48,0.00,,---,0.00,VWS V13.01,2013-03-25 15:03:00,
2013-03-25 11:08:00,38.1,20.7,18.63,NE,39,4.5,8.7,49,0.00,,---,0.00,VWS V13.01,2013-03-25 15:08:00,
2013-03-25 11:13:00,38.5,21.0,18.63,ESE,122,4.9,5.4,49,0.00,,---,0.00,VWS V13.01,2013-03-25 15:13:00,
2013-03-25 11:18:00,38.3,20.8,18.63,ENE,64,2.7,6.7,49,0.00,,---,0.00,VWS V13.01,2013-03-25 15:18:00,
2013-03-25 11:24:00,38.1,20.7,18.63,ENE,71,3.6,6.3,49,0.00,,---,0.00,VWS V13.01,2013-03-25 15:24:00,
2013-03-25 11:29:00,38.1,20.7,18.63,ENE,70,6.3,6.3,49,0.00,,---,0.00,VWS V13.01,2013-03-25 15:29:00,
2013-03-25 11:34:00,37.8,20.8,18.63,NE,55,4.9,8.1,50,0.00,,---,0.00,VWS V13.01,2013-03-25 15:34:00,
2013-03-25 11:39:00,37.6,20.6,18.63,ENE,57,5.4,8.3,50,0.00,,---,0.00,VWS V13.01,2013-03-25 15:39:00,
2013-03-25 11:45:00,37.4,20.0,18.63,ENE,68,4.5,8.1,49,0.00,,---,0.00,VWS V13.01,2013-03-25 15:45:00,
2013-03-25 11:50:00,37.6,20.6,18.63,NE,51,0.0,8.1,50,0.00,,---,0.00,VWS V13.01,2013-03-25 15:50:00,
2013-03-25 11:55:00,37.6,20.2,18.63,NE,56,3.6,5.8,49,0.00,,---,0.00,VWS V13.01,2013-03-25 15:55:00,
2013-03-25 12:00:00,37.4,20.0,18.63,East,89,3.6,6.3,49,0.00,,---,0.00,VWS V13.01,2013-03-25 16:00:00,
2013-03-25 12:05:00,37.4,20.0,18.63,ESE,108,4.0,4.0,49,0.00,,---,0.00,VWS V13.01,2013-03-25 16:05:00,
2013-03-25 12:12:00,37.6,20.2,18.63,East,87,3.6,5.4,49,0.00,,---,0.00,VWS V13.01,2013-03-25 16:12:00,
2013-03-25 12:17:00,37.6,20.2,18.63,NE,56,0.0,5.4,49,0.00,,---,0.00,VWS V13.01,2013-03-25 16:17:00,
2013-03-25 12:22:00,37.6,20.6,18.63,ESE,102,0.0,0.0,50,0.00,,---,0.00,VWS V13.01,2013-03-25 16:22:00,
2013-03-25 12:27:00,37.6,20.2,18.63,SE,126,3.1,4.5,49,0.00,,---,0.00,VWS V13.01,2013-03-25 16:27:00,
2013-03-25 12:33:00,37.8,20.3,18.63,ESE,116,4.9,5.4,49,0.00,,---,0.00,VWS V13.01,2013-03-25 16:33:00,
2013-03-25 12:38:00,37.8,19.9,18.63,East,79,3.1,7.2,48,0.00,,---,0.00,VWS V13.01,2013-03-25 16:38:00,
2013-03-25 12:43:00,37.6,19.7,18.63,ENE,70,2.2,5.8,48,0.00,,---,0.00,VWS V13.01,2013-03-25 16:43:00,
2013-03-25 12:48:00,37.6,20.2,18.63,ENE,62,3.1,5.8,49,0.00,,---,0.00,VWS V13.01,2013-03-25 16:48:00,
2013-03-25 12:53:00,37.9,20.5,18.63,NE,50,3.6,5.4,49,0.00,,---,0.00,VWS V13.01,2013-03-25 16:53:00,
2013-03-25 12:59:00,37.8,19.9,18.63,East,83,4.9,5.8,48,0.00,,---,0.00,VWS V13.01,2013-03-25 16:59:00,
2013-03-25 13:04:00,37.9,20.5,18.63,ENE,65,5.8,5.8,49,0.00,,---,0.00,VWS V13.01,2013-03-25 17:04:00,
2013-03-25 13:09:00,37.9,20.0,18.63,ESE,111,2.7,5.8,48,0.00,,---,0.00,VWS V13.01,2013-03-25 17:09:00,
2013-03-25 13:14:00,38.5,21.0,18.63,NE,53,4.0,5.8,49,0.00,,---,0.00,VWS V13.01,2013-03-25 17:14:00,
2013-03-25 13:19:00,38.5,20.5,18.63,North,353,4.0,7.6,48,0.00,,---,0.00,VWS V13.01,2013-03-25 17:19:00,
2013-03-25 13:24:00,38.5,20.5,18.63,NE,52,6.3,8.7,48,0.00,,---,0.00,VWS V13.01,2013-03-25 17:24:00,
2013-03-25 13:30:00,38.5,21.0,18.63,NNE,30,6.3,8.7,49,0.00,,---,0.00,VWS V13.01,2013-03-25 17:30:00,
2013-03-25 13:35:00,38.5,20.5,18.63,NE,45,9.2,10.5,48,0.00,,---,0.00,VWS V13.01,2013-03-25 17:35:00,
2013-03-25 13:40:00,38.7,20.7,18.63,NE,48,8.7,8.7,48,0.00,,---,0.00,VWS V13.01,2013-03-25 17:40:00,
2013-03-25 13:45:00,38.7,21.2,18.63,ENE,70,5.8,8.7,49,0.00,,---,0.00,VWS V13.01,2013-03-25 17:45:00,
2013-03-25 13:50:00,38.8,20.8,18.63,NE,48,4.9,5.8,48,0.00,,---,0.00,VWS V13.01,2013-03-25 17:50:00,
2013-03-25 13:56:00,39.0,21.0,18.63,ENE,60,4.0,7.6,48,0.00,,---,0.00,VWS V13.01,2013-03-25 17:56:00,
2013-03-25 14:00:00,39.2,20.7,18.63,ENE,73,6.3,6.3,47,0.00,,---,0.00,VWS V13.01,2013-03-25 18:00:00,
2013-03-25 14:06:00,39.4,20.8,18.63,North,357,5.8,8.3,47,0.00,,---,0.00,VWS V13.01,2013-03-25 18:06:00,
2013-03-25 14:11:00,39.7,20.1,18.63,NE,48,5.8,6.3,45,0.00,,---,0.00,VWS V13.01,2013-03-25 18:11:00,
2013-03-25 14:16:00,39.7,20.7,18.63,NE,46,8.3,10.1,46,0.00,,---,0.00,VWS V13.01,2013-03-25 18:16:00,
2013-03-25 14:21:00,39.7,21.2,18.63,NNE,25,6.3,6.3,47,0.00,,---,0.00,VWS V13.01,2013-03-25 18:21:00,
2013-03-25 14:26:00,39.7,22.2,18.63,North,357,6.7,8.1,49,0.00,,---,0.00,VWS V13.01,2013-03-25 18:26:00,
2013-03-25 14:31:00,39.2,21.7,18.63,North,0,4.9,5.8,49,0.00,,---,0.00,VWS V13.01,2013-03-25 18:31:00,
2013-03-25 14:36:00,39.4,21.8,18.63,NE,52,5.8,7.6,49,0.00,,---,0.00,VWS V13.01,2013-03-25 18:36:00,
2013-03-25 14:41:00,39.6,22.5,18.63,NE,47,5.8,6.3,50,0.00,,---,0.00,VWS V13.01,2013-03-25 18:41:00,
2013-03-25 14:47:00,39.7,22.2,18.63,NNE,20,2.7,8.3,49,0.00,,---,0.00,VWS V13.01,2013-03-25 18:47:00,
2013-03-25 14:52:00,39.7,22.2,18.63,North,353,5.4,8.3,49,0.00,,---,0.00,VWS V13.01,2013-03-25 18:52:00,
2013-03-25 14:57:00,39.7,22.2,18.63,NNE,21,3.1,8.7,49,0.00,,---,0.00,VWS V13.01,2013-03-25 18:57:00,
2013-03-25 15:02:00,39.7,22.2,18.63,NE,48,4.0,6.3,49,0.00,,---,0.00,VWS V13.01,2013-03-25 19:02:00,
2013-03-25 15:07:00,39.7,22.6,18.63,NNE,33,5.4,6.3,50,0.00,,---,0.00,VWS V13.01,2013-03-25 19:07:00,
2013-03-25 15:13:00,39.7,22.2,18.63,NE,54,5.8,10.5,49,0.00,,---,0.00,VWS V13.01,2013-03-25 19:13:00,
2013-03-25 15:18:00,39.7,22.6,18.63,NE,36,9.2,10.5,50,0.00,,---,0.00,VWS V13.01,2013-03-25 19:18:00,
2013-03-25 15:23:00,39.6,22.5,18.63,NE,36,5.4,10.1,50,0.00,,---,0.00,VWS V13.01,2013-03-25 19:23:00,
2013-03-25 15:29:00,39.6,22.5,18.63,North,2,7.6,10.5,50,0.00,,---,0.00,VWS V13.01,2013-03-25 19:29:00,
2013-03-25 15:34:00,39.6,22.5,18.63,North,357,6.3,8.7,50,0.00,,---,0.00,VWS V13.01,2013-03-25 19:34:00,
2013-03-25 15:39:00,39.6,22.5,18.63,NNE,28,8.1,8.7,50,0.00,,---,0.00,VWS V13.01,2013-03-25 19:39:00,
2013-03-25 15:44:00,39.4,22.8,18.63,North,11,8.7,11.0,51,0.00,,---,0.00,VWS V13.01,2013-03-25 19:44:00,
2013-03-25 15:49:00,39.4,22.8,18.63,North,353,6.3,11.0,51,0.00,,---,0.00,VWS V13.01,2013-03-25 19:49:00,
2013-03-25 15:54:00,39.4,23.7,18.63,NNW,348,6.3,10.5,53,0.00,,---,0.00,VWS V13.01,2013-03-25 19:54:00,
2013-03-25 16:00:00,39.0,23.4,18.63,NNE,21,6.3,10.5,53,0.00,,---,0.00,VWS V13.01,2013-03-25 20:00:00,
2013-03-25 16:05:00,39.0,23.8,18.63,NNE,16,8.7,11.0,54,0.00,,---,0.00,VWS V13.01,2013-03-25 20:05:00,
2013-03-25 16:10:00,38.8,23.2,18.63,North,4,7.6,11.0,53,0.00,,---,0.00,VWS V13.01,2013-03-25 20:10:00,
2013-03-25 16:15:00,39.0,22.4,18.63,NE,43,3.1,8.7,51,0.00,,---,0.00,VWS V13.01,2013-03-25 20:15:00,
2013-03-25 16:20:00,38.8,21.8,18.63,NNE,33,8.1,8.3,50,0.00,,---,0.00,VWS V13.01,2013-03-25 20:20:00,
2013-03-25 16:26:00,38.8,21.8,18.63,NE,51,5.8,10.5,50,0.00,,---,0.00,VWS V13.01,2013-03-25 20:26:00,
2013-03-25 16:31:00,38.8,21.3,18.63,North,0,6.3,9.2,49,0.00,,---,0.00,VWS V13.01,2013-03-25 20:31:00,
2013-03-25 16:36:00,39.0,21.5,18.63,NE,55,7.6,9.2,49,0.00,,---,0.00,VWS V13.01,2013-03-25 20:36:00,
2013-03-25 16:41:00,38.8,20.8,18.63,NE,36,8.7,9.6,48,0.00,,---,0.00,VWS V13.01,2013-03-25 20:41:00,
2013-03-25 16:46:00,38.7,20.7,18.63,NNE,19,8.3,11.4,48,0.00,,---,0.00,VWS V13.01,2013-03-25 20:46:00,
2013-03-25 16:51:00,38.7,20.7,18.63,NNE,22,8.1,11.9,48,0.00,,---,0.00,VWS V13.01,2013-03-25 20:51:00,
2013-03-25 16:57:00,38.3,20.4,18.63,NE,54,6.3,14.1,48,0.00,,---,0.00,VWS V13.01,2013-03-25 20:57:00,
2013-03-25 17:02:00,38.1,20.2,18.63,North,4,6.3,8.3,48,0.00,,---,0.00,VWS V13.01,2013-03-25 21:02:00,
2013-03-25 17:07:00,38.1,20.2,18.63,NE,47,8.3,10.5,48,0.00,,---,0.00,VWS V13.01,2013-03-25 21:07:00,
2013-03-25 17:12:00,37.9,20.0,18.63,NE,38,6.3,10.1,48,0.00,,---,0.00,VWS V13.01,2013-03-25 21:12:00,
2013-03-25 17:17:00,37.8,19.9,18.63,NNE,22,6.3,10.5,48,0.00,,---,0.00,VWS V13.01,2013-03-25 21:17:00,
2013-03-25 17:22:00,37.6,19.2,18.63,NE,49,8.7,10.1,47,0.00,,---,0.00,VWS V13.01,2013-03-25 21:22:00,
2013-03-25 17:27:00,37.6,20.2,18.63,NE,37,7.2,12.3,49,0.00,,---,0.00,VWS V13.01,2013-03-25 21:27:00,
2013-03-25 17:33:00,37.6,20.2,18.63,NNE,20,7.6,9.6,49,0.00,,---,0.00,VWS V13.01,2013-03-25 21:33:00,
2013-03-25 17:38:00,37.4,20.0,18.63,NNE,27,8.1,11.0,49,0.00,,---,0.00,VWS V13.01,2013-03-25 21:38:00,
2013-03-25 17:44:00,37.4,20.0,18.63,NNE,29,5.8,11.0,49,0.00,,---,0.00,VWS V13.01,2013-03-25 21:44:00,
2013-03-25 17:49:00,37.4,20.5,18.63,NNE,15,6.3,12.3,50,0.00,,---,0.00,VWS V13.01,2013-03-25 21:49:00,
2013-03-25 17:54:00,37.2,20.3,18.63,NE,36,9.2,12.3,50,0.00,,---,0.00,VWS V13.01,2013-03-25 21:54:00,
2013-03-25 17:59:00,37.0,20.6,18.63,NE,40,6.3,12.3,51,0.00,,---,0.00,VWS V13.01,2013-03-25 21:59:00,
2013-03-25 18:05:00,37.0,21.1,18.63,NE,54,5.4,11.4,52,0.00,,---,0.00,VWS V13.01,2013-03-25 22:05:00,
2013-03-25 18:10:00,36.9,21.3,18.63,NE,51,5.8,11.4,53,0.00,,---,0.00,VWS V13.01,2013-03-25 22:10:00,
2013-03-25 18:15:00,36.9,21.8,18.63,ENE,76,5.4,8.3,54,0.00,,---,0.00,VWS V13.01,2013-03-25 22:15:00,
2013-03-25 18:20:00,36.7,21.6,18.63,NE,41,8.3,10.1,54,0.00,,---,0.00,VWS V13.01,2013-03-25 22:20:00,
2013-03-25 18:25:00,36.5,21.9,18.63,NE,47,8.1,12.3,55,0.00,,---,0.00,VWS V13.01,2013-03-25 22:25:00,
2013-03-25 18:30:00,36.3,22.1,18.63,NE,45,5.8,8.1,56,0.00,,---,0.00,VWS V13.01,2013-03-25 22:30:00,
2013-03-25 18:35:00,36.1,22.4,18.63,NE,41,4.9,8.3,57,0.00,,---,0.00,VWS V13.01,2013-03-25 22:35:00,
2013-03-25 18:40:00,36.1,22.4,18.63,North,0,4.0,6.3,57,0.00,,---,0.00,VWS V13.01,2013-03-25 22:40:00,
2013-03-25 18:46:00,36.0,22.2,18.63,NNE,32,5.8,8.1,57,0.00,,---,0.00,VWS V13.01,2013-03-25 22:46:00,
2013-03-25 18:52:00,35.8,22.0,18.63,NNE,13,6.3,8.3,57,0.00,,---,0.00,VWS V13.01,2013-03-25 22:52:00,
2013-03-25 18:57:00,35.8,22.0,18.63,NNW,344,7.6,8.3,57,0.00,,---,0.00,VWS V13.01,2013-03-25 22:57:00,
2013-03-25 19:02:00,35.8,22.0,18.63,North,4,5.4,10.5,57,0.00,,---,0.00,VWS V13.01,2013-03-25 23:02:00,
2013-03-25 19:07:00,35.6,22.3,18.63,NE,51,6.3,10.5,58,0.00,,---,0.00,VWS V13.01,2013-03-25 23:07:00,
2013-03-25 19:12:00,35.4,22.5,18.63,North,8,5.8,8.1,59,0.00,,---,0.00,VWS V13.01,2013-03-25 23:12:00,
2013-03-25 19:18:00,35.4,22.9,18.63,North,353,4.0,8.7,60,0.00,,---,0.00,VWS V13.01,2013-03-25 23:18:00,
2013-03-25 19:23:00,35.2,22.8,18.63,NE,43,2.7,7.6,60,0.00,,---,0.00,VWS V13.01,2013-03-25 23:23:00,
2013-03-25 19:28:00,35.1,22.6,18.63,North,353,4.0,7.6,60,0.00,,---,0.00,VWS V13.01,2013-03-25 23:28:00,
2013-03-25 19:33:00,35.1,22.2,18.63,North,5,5.4,8.3,59,0.00,,---,0.00,VWS V13.01,2013-03-25 23:33:00,
2013-03-25 19:38:00,35.1,22.2,18.63,North,357,4.0,8.3,59,0.00,,---,0.00,VWS V13.01,2013-03-25 23:38:00,
2013-03-25 19:43:00,34.9,22.0,18.63,NE,41,5.8,5.8,59,0.00,,---,0.00,VWS V13.01,2013-03-25 23:43:00,
2013-03-25 19:48:00,34.9,22.0,18.63,NE,40,3.6,5.8,59,0.00,,---,0.00,VWS V13.01,2013-03-25 23:48:00,
2013-03-25 19:54:00,34.7,21.9,18.63,NNE,21,0.0,3.6,59,0.00,,---,0.00,VWS V13.01,2013-03-25 23:54:00,
2013-03-25 19:59:00,34.5,21.7,18.63,NNE,19,3.1,4.0,59,0.00,,---,0.00,VWS V13.01,2013-03-25 23:59:00,
2013-03-25 20:04:00,34.5,21.7,18.63,North,357,0.0,4.0,59,0.00,,---,0.00,VWS V13.01,2013-03-26 00:04:00,
2013-03-25 20:09:00,34.3,21.5,18.63,North,357,0.0,4.0,59,0.00,,---,0.00,VWS V13.01,2013-03-26 00:09:00,
2013-03-25 20:15:00,34.3,21.5,18.63,North,357,0.0,0.0,59,0.00,,---,0.00,VWS V13.01,2013-03-26 00:15:00,
2013-03-25 20:20:00,34.2,21.3,18.63,North,357,0.0,0.0,59,0.00,,---,0.00,VWS V13.01,2013-03-26 00:20:00,
2013-03-25 20:25:00,34.2,21.7,18.63,North,357,0.0,0.0,60,0.00,,---,0.00,VWS V13.01,2013-03-26 00:25:00,
2013-03-25 20:30:00,34.0,21.6,18.63,North,357,0.0,0.0,60,0.00,,---,0.00,VWS V13.01,2013-03-26 00:30:00,
2013-03-25 20:35:00,33.8,21.4,18.63,North,357,0.0,0.0,60,0.00,,---,0.00,VWS V13.01,2013-03-26 00:35:00,
2013-03-25 20:41:00,33.8,21.4,18.63,North,357,0.0,0.0,60,0.00,,---,0.00,VWS V13.01,2013-03-26 00:41:00,
2013-03-25 20:47:00,33.6,21.2,18.63,North,357,0.0,0.0,60,0.00,,---,0.00,VWS V13.01,2013-03-26 00:47:00,
2013-03-25 20:52:00,33.6,21.6,18.63,North,357,0.0,0.0,61,0.00,,---,0.00,VWS V13.01,2013-03-26 00:52:00,
2013-03-25 20:57:00,33.4,21.5,18.63,North,357,0.0,0.0,61,0.00,,---,0.00,VWS V13.01,2013-03-26 00:57:00,
2013-03-25 21:02:00,33.3,21.3,18.63,North,357,0.0,0.0,61,0.00,,---,0.00,VWS V13.01,2013-03-26 01:02:00,
2013-03-25 21:07:00,33.3,21.3,18.63,North,357,0.0,0.0,61,0.00,,---,0.00,VWS V13.01,2013-03-26 01:07:00,
2013-03-25 21:12:00,33.1,21.1,18.63,North,357,0.0,0.0,61,0.00,,---,0.00,VWS V13.01,2013-03-26 01:12:00,
2013-03-25 21:18:00,33.1,21.1,18.63,North,357,0.0,0.0,61,0.00,,---,0.00,VWS V13.01,2013-03-26 01:18:00,
2013-03-25 21:23:00,32.7,21.1,18.63,North,357,0.0,0.0,62,0.00,,---,0.00,VWS V13.01,2013-03-26 01:23:00,
2013-03-25 21:28:00,32.7,21.5,18.63,North,357,0.0,0.0,63,0.00,,---,0.00,VWS V13.01,2013-03-26 01:28:00,
2013-03-25 21:34:00,32.5,21.7,18.63,North,357,0.0,0.0,64,0.00,,---,0.00,VWS V13.01,2013-03-26 01:34:00,
2013-03-25 21:39:00,32.2,21.8,18.63,North,357,0.0,0.0,65,0.00,,---,0.00,VWS V13.01,2013-03-26 01:39:00,
2013-03-25 21:44:00,32.0,21.6,18.63,North,357,0.0,0.0,65,0.00,,---,0.00,VWS V13.01,2013-03-26 01:44:00,
2013-03-25 21:49:00,32.0,21.9,18.63,North,357,0.0,0.0,66,0.00,,---,0.00,VWS V13.01,2013-03-26 01:49:00,
2013-03-25 21:54:00,31.8,22.1,18.63,North,357,0.0,0.0,67,0.00,,---,0.00,VWS V13.01,2013-03-26 01:54:00,
2013-03-25 21:59:00,31.8,22.1,18.63,North,357,0.0,0.0,67,0.00,,---,0.00,VWS V13.01,2013-03-26 01:59:00,
2013-03-25 22:05:00,31.6,22.3,18.63,North,357,0.0,0.0,68,0.00,,---,0.00,VWS V13.01,2013-03-26 02:05:00,
2013-03-25 22:10:00,31.6,22.6,18.63,North,357,0.0,0.0,69,0.00,,---,0.00,VWS V13.01,2013-03-26 02:10:00,
2013-03-25 22:15:00,31.8,22.8,18.63,North,357,0.0,0.0,69,0.00,,---,0.00,VWS V13.01,2013-03-26 02:15:00,
2013-03-25 22:20:00,31.8,23.2,18.63,North,357,0.0,0.0,70,0.00,,---,0.00,VWS V13.01,2013-03-26 02:20:00,
2013-03-25 22:25:00,32.0,23.3,18.63,North,357,0.0,0.0,70,0.00,,---,0.00,VWS V13.01,2013-03-26 02:25:00,
2013-03-25 22:30:00,32.0,23.3,18.63,North,357,0.0,0.0,70,0.00,,---,0.00,VWS V13.01,2013-03-26 02:30:00,
2013-03-25 22:35:00,32.2,23.9,18.63,North,357,0.0,0.0,71,0.00,,---,0.00,VWS V13.01,2013-03-26 02:35:00,
2013-03-25 22:41:00,32.2,23.9,18.63,North,357,0.0,0.0,71,0.00,,---,0.00,VWS V13.01,2013-03-26 02:41:00,
2013-03-25 22:46:00,32.4,24.0,18.63,North,357,0.0,0.0,71,0.00,,---,0.00,VWS V13.01,2013-03-26 02:46:00,
2013-03-25 22:51:00,32.5,24.2,18.63,North,357,0.0,0.0,71,0.00,,---,0.00,VWS V13.01,2013-03-26 02:51:00,
2013-03-25 22:56:00,32.5,23.9,18.63,North,357,0.0,0.0,70,0.00,,---,0.00,VWS V13.01,2013-03-26 02:56:00,
2013-03-25 23:02:00,32.7,24.0,18.63,West,271,0.0,0.0,70,0.00,,---,0.00,VWS V13.01,2013-03-26 03:02:00,
2013-03-25 23:07:00,32.7,24.0,18.63,West,271,0.0,0.0,70,0.00,,---,0.00,VWS V13.01,2013-03-26 03:07:00,
2013-03-25 23:12:00,32.7,23.7,18.63,West,272,0.0,0.0,69,0.00,,---,0.00,VWS V13.01,2013-03-26 03:12:00,
2013-03-25 23:18:00,32.7,23.7,18.63,West,271,0.0,0.0,69,0.00,,---,0.00,VWS V13.01,2013-03-26 03:18:00,
2013-03-25 23:23:00,32.7,23.7,18.63,West,271,0.0,0.0,69,0.00,,---,0.00,VWS V13.01,2013-03-26 03:23:00,
2013-03-25 23:28:00,32.7,23.7,18.63,West,271,0.0,0.0,69,0.00,,---,0.00,VWS V13.01,2013-03-26 03:28:00,
2013-03-25 23:33:00,32.7,23.7,18.63,West,272,0.0,0.0,69,0.00,,---,0.00,VWS V13.01,2013-03-26 03:33:00,
2013-03-25 23:39:00,32.7,23.7,18.63,West,272,0.0,0.0,69,0.00,,---,0.00,VWS V13.01,2013-03-26 03:39:00,
2013-03-25 23:44:00,32.7,23.7,18.63,West,272,0.0,0.0,69,0.00,,---,0.00,VWS V13.01,2013-03-26 03:44:00,
2013-03-25 23:49:00,32.7,23.7,18.63,West,272,0.0,0.0,69,0.00,,---,0.00,VWS V13.01,2013-03-26 03:49:00,
2013-03-25 23:54:00,32.7,23.7,18.63,West,271,0.0,0.0,69,0.00,,---,0.00,VWS V13.01,2013-03-26 03:54:00,
2013-03-25 23:59:00,32.7,23.7,18.63,West,272,0.0,0.0,69,0.00,,---,0.00,VWS V13.01,2013-03-26 03:59:00,